Barksdale AFB, LA

1:44 PM CST on January 23, 2017 (GMT -0600)
Barksdale Air Force Base

Weather History for KBAD - February, 2013

Change the Weather History Date:

Monday, February 4, 2013

  Actual Average Record
Temperature  
Mean Temperature 52 °F -  
Max Temperature 59 °F 54 °F 78 °F (2008)
Min Temperature 44 °F 37 °F 24 °F (2011)
Degree Days  
Heating Degree Days 14    
Growing Degree Days 2 (Base 50)    
Moisture  
Dew Point 49 °F    
Average Humidity 84    
Maximum Humidity 100    
Minimum Humidity 63    
Precipitation  
Precipitation 0.11 in - - ()
Sea Level Pressure  
Sea Level Pressure 29.96 in    
Wind  
Wind Speed 7 mph (SSE)    
Max Wind Speed 13 mph    
Max Gust Speed -    
Visibility 10 miles    
Events Rain , Thunderstorm    
Averages and records for this station are not official NWS values.
T = Trace of Precipitation, MM = Missing Value Source: NWS Daily Summary

Daily Weather History Graph

Daily Weather History Graph

Search for Another Location

Airport or City:

Trip Planner

Search our weather history database for the weather conditions in past years. The results will help you decide how hot, cold, wet, or windy it might be!

Date:

Astronomy

Feb. 04, 2013 Rise Set
Actual Time 7:06 AM CST 5:50 PM CST
Civil Twilight 6:41 AM CST 6:16 PM CST
Nautical Twilight 6:11 AM CST 6:45 PM CST
Astronomical Twilight 5:43 AM CST 7:14 PM CST
Moon 1:39 AM CST (2/4) 12:19 PM CST (2/4)
Length of Visible Light 11h 35m
Length of Day
10h 44m
Last Quarter, 37% of the Moon is Illuminated
Feb 4
Last Quarter
Feb 10
New
Feb 17
First Quarter
Feb 25
Full
Mar 4
Last Quarter

Hourly Weather History & Observations

Time (CST) Temp. Windchill Dew Point Humidity Pressure Visibility Wind Dir Wind Speed Gust Speed Precip Events Conditions
12:58 AM 45.5 °F 43.2 °F 38.3 °F 76% 30.08 in 10.0 mi SSE 4.6 mph - N/A   Overcast
1:58 AM 45.9 °F 42.3 °F 35.6 °F 67% 30.05 in 10.0 mi SSE 6.9 mph - N/A   Mostly Cloudy
2:58 AM 45.5 °F 44.2 °F 35.2 °F 67% 30.04 in 10.0 mi SSE 3.5 mph - N/A   Partly Cloudy
4:58 AM 45.1 °F 42.8 °F 36.1 °F 71% 30.02 in 10.0 mi SE 4.6 mph - N/A   Overcast
5:58 AM 44.2 °F - 38.1 °F 79% 30.02 in 10.0 mi SE 2.3 mph - N/A   Partly Cloudy
6:58 AM 45.7 °F 42.0 °F 39.2 °F 78% 30.01 in 10.0 mi SSE 6.9 mph - N/A   Overcast
7:58 AM 47.5 °F - 40.1 °F 76% 30.02 in 10.0 mi SSE 4.6 mph - N/A   Overcast
8:58 AM 49.8 °F - 39.7 °F 68% 30.02 in 10.0 mi SSE 8.1 mph - N/A   Partly Cloudy
9:36 AM 51.8 °F - 41.0 °F 67% 30.01 in 10.0 mi SSE 9.2 mph - N/A   Light Drizzle
9:58 AM 51.1 °F - 42.3 °F 72% 30.02 in 10.0 mi SSE 6.9 mph - 0.00 in Rain Light Rain Showers
10:09 AM 51.8 °F - 42.8 °F 71% 30.02 in 10.0 mi SSE 6.9 mph - N/A   Mostly Cloudy
10:34 AM 53.6 °F - 42.8 °F 67% 30.01 in 10.0 mi SSE 6.9 mph - N/A Rain Light Rain
10:58 AM 54.7 °F - 44.1 °F 67% 30.02 in 10.0 mi SSE 8.1 mph - 0.00 in Rain Light Rain
11:17 AM 57.2 °F - 44.6 °F 63% 30.00 in 10.0 mi SSE 9.2 mph - N/A   Mostly Cloudy
11:58 AM 57.4 °F - 45.5 °F 65% 29.99 in 10.0 mi SSE 10.4 mph - 0.00 in   Scattered Clouds
12:58 PM 58.8 °F - 48.6 °F 69% 29.95 in 10.0 mi SSE 11.5 mph - N/A   Scattered Clouds
1:20 PM 59.0 °F - 50.0 °F 72% 29.93 in 10.0 mi SSE 11.5 mph - N/A Rain Light Rain
1:38 PM 59.0 °F - 50.0 °F 72% 29.93 in 10.0 mi SE 8.1 mph - N/A   Overcast
1:54 PM 59.0 °F - 50.0 °F 72% 29.92 in 10.0 mi SSE 10.4 mph - N/A Rain Light Rain
1:58 PM 58.5 °F - 50.7 °F 75% 29.93 in 10.0 mi SSE 8.1 mph - 0.00 in Rain Light Rain
2:14 PM 57.2 °F - 51.8 °F 82% 29.92 in 10.0 mi SSE 10.4 mph - N/A   Mostly Cloudy
2:39 PM 57.2 °F - 51.8 °F 82% 29.91 in 10.0 mi SSE 9.2 mph - N/A   Light Drizzle
2:58 PM 57.2 °F - 52.7 °F 85% 29.91 in 10.0 mi SSE 12.7 mph - 0.00 in Rain Light Rain
3:58 PM 57.0 °F - 52.3 °F 84% 29.89 in 10.0 mi SSE 9.2 mph - N/A   Overcast
4:58 PM 58.1 °F - 53.6 °F 85% 29.89 in 10.0 mi SSE 9.2 mph - N/A   Overcast
5:58 PM 55.8 °F - 54.0 °F 94% 29.88 in 10.0 mi SSE 10.4 mph - N/A   Scattered Clouds
6:43 PM 57.2 °F - 55.4 °F 94% 29.89 in 10.0 mi South 6.9 mph - N/A   Overcast
6:58 PM 56.8 °F - 55.2 °F 94% 29.90 in 10.0 mi South 5.8 mph - N/A   Overcast
7:58 PM 55.6 °F - 55.2 °F 99% 29.92 in 10.0 mi South 1.2 mph - N/A   Overcast
8:13 PM 55.4 °F - 55.4 °F 100% 29.92 in 10.0 mi SSE 2.3 mph - N/A   Overcast
8:43 PM 55.4 °F - 55.4 °F 100% 29.93 in 10.0 mi SSE 3.5 mph - N/A   Overcast
8:58 PM 55.9 °F - 55.0 °F 97% 29.94 in 10.0 mi SSE 3.5 mph - N/A   Overcast
9:28 PM 55.4 °F - 55.4 °F 100% 29.93 in 10.0 mi SSE 4.6 mph - N/A   Overcast
9:58 PM 55.6 °F - 55.0 °F 98% 29.95 in 10.0 mi South 4.6 mph - N/A Thunderstorm Mostly Cloudy
10:01 PM 55.4 °F - 55.4 °F 100% 29.94 in 7.0 mi South 5.8 mph - N/A Rain , Thunderstorm Light Thunderstorms and Rain
10:02 PM 55.4 °F - 55.4 °F 100% 29.94 in 6.0 mi South 8.1 mph - N/A Rain , Thunderstorm Heavy Rain
10:15 PM 55.4 °F - 55.4 °F 100% 29.93 in 5.0 mi SSE 8.1 mph - N/A Rain Light Rain
10:17 PM 55.4 °F - 55.4 °F 100% 29.94 in 9.0 mi SSE 5.8 mph - N/A Rain Light Rain
10:34 PM 55.4 °F - 55.4 °F 100% 29.94 in 10.0 mi SSE 4.6 mph - N/A   Overcast
10:58 PM 55.4 °F - 55.4 °F 100% 29.94 in 10.0 mi SSE 6.9 mph - 0.11 in   Overcast
11:43 PM 53.6 °F - 53.6 °F 100% 29.92 in 10.0 mi SE 4.6 mph - N/A   Mostly Cloudy
11:58 PM 54.0 °F - 54.0 °F 100% 29.93 in 10.0 mi SE 3.5 mph - N/A   Overcast